Location: Asheville, NC
(35.6000°N, 82.5500°W)
Time: 02:36:04
(UTC-04:00)

CUBESAT XI-V - Visible Passes

Search period start: 18 July 2018 00:00
Search period end: 28 July 2018 00:00
Orbit: 670 x 693 km, 97.9° (Epoch: 17 July)

Date Brightness Start Highest point End Pass type
(mag) Time Alt. Az. Time Alt. Az. Time Alt. Az.
18 Jul ? 03:41:04 10° ESE 03:44:33 22° ENE 03:48:04 10° NNE visible
18 Jul ? 05:18:44 16° SSW 05:21:41 31° W 05:25:48 10° NW visible
19 Jul ? 04:17:05 16° SSE 04:20:38 53° ENE 04:25:09 10° N visible
19 Jul ? 05:56:21 10° WSW 05:58:16 12° W 06:00:12 10° WNW visible
20 Jul ? 03:18:20 10° E 03:20:08 12° ENE 03:21:56 10° NE visible
20 Jul ? 04:53:54 21° S 04:56:55 60° W 05:01:30 10° NNW visible
21 Jul ? 03:52:15 11° SE 03:56:05 29° ENE 04:00:03 10° NNE visible
21 Jul ? 05:30:43 15° SW 05:33:22 23° W 05:37:04 10° NW visible
22 Jul ? 04:29:04 20° SSE 04:32:13 73° ENE 04:36:52 10° N visible
23 Jul ? 03:28:46 10° ESE 03:31:37 16° ENE 03:34:27 10° NNE visible
23 Jul ? 05:05:53 21° SSW 05:08:33 43° W 05:13:00 10° NNW visible
24 Jul ? 04:04:15 15° SE 04:07:37 38° ENE 04:11:55 10° N visible
24 Jul ? 05:42:42 12° SW 05:45:04 17° W 05:48:09 10° NW visible
25 Jul ? 04:41:04 24° S 04:43:49 83° WSW 04:48:30 10° NNW visible
26 Jul ? 03:39:37 10° ESE 03:43:06 22° ENE 03:46:37 10° NNE visible
26 Jul ? 05:17:53 20° SW 05:20:13 32° W 05:24:23 10° NNW visible
27 Jul ? 04:16:15 21° SE 04:19:10 52° ENE 04:23:42 10° N visible
27 Jul ? 05:54:45 10° WSW 05:56:48 13° W 05:58:51 10° WNW visible
